Date String (YYYY-MM-DD hh:mm:ss) UTC,Instrument flags,Ambient pressure (hPa),Sample flow (lpm),Bypass flow (lpm),Sample temperature (°C),Ambient temperature (°C),ASC tube jacket temperature (°C),LED temperature (°C),Box temperature (°C),Sample RH (%),Span deviation,Mass concentration (μg/m³),Mass concentration (μg/m³),Mass concentration (μg/m³)
DateTimeUTC,F1_M11,P_M11,Q1_M11,Q2_M11,T1_M11,T2_M11,T3_M11,T4_M11,T5_M11,U1_M11,ZSPAN_M11,X0_M11,X2_M11,X1_M11
2021-11-18 14:00:00,,0834.0,4.99,0.00,22.4,22.1,00.0,31.4,24.2,06.8,0000.0,0009.59,0003.41,0002.14
2021-11-18 14:01:00,,0834.0,5.00,0.00,22.4,21.9,00.0,31.4,24.1,06.7,0000.0,0008.85,0003.33,0002.05
2021-11-18 14:02:00,,0834.0,5.00,0.00,22.4,21.8,00.0,31.4,24.0,07.3,0000.0,0008.68,0003.24,0001.98
2021-11-18 14:03:00,,0834.0,5.00,0.00,22.3,21.7,00.0,31.4,24.0,07.6,0000.0,0007.95,0003.18,0001.94
2021-11-18 14:04:00,,0833.9,5.00,0.00,22.3,21.6,00.0,31.4,24.0,08.1,0000.0,0007.40,0003.12,0001.91
2021-11-18 14:05:00,,0833.8,5.01,0.00,22.3,21.6,00.0,31.4,23.9,08.7,0000.0,0007.55,0003.10,0001.90
2021-11-18 14:06:00,,0833.8,5.00,0.00,22.2,21.5,00.0,31.4,23.9,08.6,0000.0,0007.48,0003.07,0001.87
2021-11-18 14:07:00,,0833.9,5.00,0.00,22.2,21.5,00.0,31.3,23.9,08.5,0000.0,0007.70,0003.06,0001.83
2021-11-18 14:08:00,,0833.9,5.00,0.00,22.2,21.8,00.0,31.3,23.9,08.4,0000.0,0007.83,0003.05,0001.79
2021-11-18 14:09:00,,0834.0,5.00,0.00,22.3,22.6,00.0,31.4,24.1,08.4,0000.0,0008.21,0003.07,0001.78
2021-11-18 14:10:00,,0834.0,5.00,0.00,22.4,23.3,00.0,31.4,24.3,08.3,0000.0,0008.22,0003.10,0001.82
2021-11-18 14:11:00,,0834.0,5.01,0.00,22.5,23.3,00.0,31.4,24.4,08.2,0000.0,0008.73,0003.14,0001.84
2021-11-18 14:12:00,,0834.0,4.99,0.00,22.5,23.0,00.0,31.4,24.4,08.2,0000.0,0009.30,0003.21,0001.88
2021-11-18 14:13:00,,0834.0,4.99,0.00,22.5,22.7,00.0,31.4,24.4,08.3,0000.0,0009.60,0003.28,0001.92
2021-11-18 14:14:00,,0834.0,5.00,0.00,22.5,22.5,00.0,31.4,24.3,08.4,0000.0,0010.75,0003.37,0001.94
2021-11-18 14:15:00,,0834.0,4.99,0.00,22.5,22.3,00.0,31.4,24.2,08.6,0000.0,0011.49,0003.40,0001.97
2021-11-18 14:16:00,,0834.0,5.01,0.00,22.5,22.1,00.0,31.4,24.2,08.6,0000.0,0011.55,0003.36,0001.96
2021-11-18 14:17:00,,0834.1,5.00,0.00,22.4,22.0,00.0,31.4,24.1,08.5,0000.0,0011.76,0003.38,0001.96
2021-11-18 14:18:00,,0834.1,5.00,0.00,22.4,21.9,00.0,31.4,24.1,08.4,0000.0,0011.57,0003.40,0001.97
2021-11-18 14:19:00,,0834.0,5.01,0.00,22.4,21.8,00.0,31.4,24.1,08.4,0000.0,0011.77,0003.38,0001.98
2021-11-18 14:20:00,,0834.0,5.00,0.00,22.4,21.8,00.0,31.4,24.0,08.5,0000.0,0011.41,0003.36,0001.98
2021-11-18 14:21:00,,0834.0,5.01,0.00,22.3,21.7,00.0,31.4,24.0,08.5,0000.0,0011.49,0003.38,0001.98
2021-11-18 14:22:00,,0834.0,5.00,0.00,22.3,21.6,00.0,31.4,24.0,08.5,0000.0,0011.18,0003.40,0001.99
2021-11-18 14:23:00,,0834.0,4.99,0.00,22.3,21.6,00.0,31.4,24.0,08.7,0000.0,0011.05,0003.36,0001.99
2021-11-18 14:24:00,,0834.0,5.00,0.00,22.3,21.6,00.0,31.4,24.0,08.8,0000.0,0010.93,0003.34,0002.00
2021-11-18 14:25:00,,0834.0,5.00,0.00,22.3,21.6,00.0,31.4,23.9,09.1,0000.0,0009.95,0003.32,0002.03
2021-11-18 14:26:00,,0834.0,5.01,0.00,22.3,21.6,00.0,31.4,23.9,09.2,0000.0,0009.32,0003.36,0002.07
2021-11-18 14:27:00,,0834.0,5.00,0.00,22.3,22.2,00.0,31.4,24.1,09.2,0000.0,0009.28,0003.44,0002.11
2021-11-18 14:28:00,,0834.0,5.00,0.00,22.4,23.1,00.0,31.4,24.3,09.2,0000.0,0009.69,0003.46,0002.17
2021-11-18 14:29:00,,0834.0,5.00,0.00,22.6,23.7,00.0,31.5,24.5,09.2,0000.0,0010.20,0003.50,0002.22
2021-11-18 14:30:00,,0834.0,5.00,0.00,22.6,23.5,00.0,31.5,24.6,09.0,0000.0,0010.00,0003.57,0002.28
2021-11-18 14:31:00,,0834.0,4.99,0.00,22.6,23.2,00.0,31.5,24.5,08.7,0000.0,0010.21,0003.60,0002.33
2021-11-18 14:32:00,,0834.0,5.01,0.00,22.6,22.9,00.0,31.5,24.5,08.6,0000.0,0010.20,0003.62,0002.36
2021-11-18 14:33:00,,0834.0,5.02,0.00,22.6,22.7,00.0,31.5,24.4,08.8,0000.0,0010.52,0003.66,0002.41
2021-11-18 14:34:00,,0834.0,4.99,0.00,22.6,22.5,00.0,31.5,24.4,08.9,0000.0,0010.76,0003.73,0002.52
2021-11-18 14:35:00,,0834.0,5.01,0.00,22.6,22.4,00.0,31.5,24.3,09.0,0000.0,0012.07,0003.84,0002.62
2021-11-18 14:36:00,,0834.0,4.99,0.00,22.6,22.3,00.0,31.5,24.3,09.0,0000.0,0013.25,0003.94,0002.69
2021-11-18 14:37:00,,0834.0,5.00,0.00,22.6,22.2,00.0,31.5,24.3,09.1,0000.0,0014.91,0004.01,0002.74
2021-11-18 14:38:00,,0834.0,5.01,0.00,22.6,22.1,00.0,31.6,24.3,09.1,0000.0,0015.81,0004.00,0002.79
2021-11-18 14:39:00,,0834.0,5.00,0.00,22.6,22.1,00.0,31.6,24.3,09.0,0000.0,0015.86,0003.99,0002.83
2021-11-18 14:40:00,,0834.0,5.01,0.00,22.6,22.0,00.0,31.6,24.3,08.9,0000.0,0015.95,0004.01,0002.86
2021-11-18 14:41:00,,0834.0,5.00,0.00,22.6,22.0,00.0,31.6,24.3,09.0,0000.0,0016.01,0004.04,0002.91
2021-11-18 14:42:00,,0834.0,5.00,0.00,22.6,22.0,00.0,31.6,24.3,09.1,0000.0,0016.32,0004.11,0002.97
2021-11-18 14:43:00,,0834.0,5.01,0.00,22.6,21.9,00.0,31.6,24.3,09.1,0000.0,0016.77,0004.18,0003.05
2021-11-18 14:44:00,,0834.0,4.99,0.00,22.6,21.9,00.0,31.6,24.3,09.1,0000.0,0017.21,0004.18,0003.11
2021-11-18 14:45:00,,0834.0,5.01,0.00,22.6,21.9,00.0,31.6,24.3,09.1,0000.0,0017.22,0004.20,0003.09
2021-11-18 14:46:00,,0833.9,4.99,0.00,22.6,21.9,00.0,31.6,24.3,09.1,0000.0,0016.33,0004.25,0003.07
2021-11-18 14:47:00,,0834.0,5.00,0.00,22.6,21.9,00.0,31.6,24.3,09.1,0000.0,0015.70,0004.23,0003.07
2021-11-18 14:48:00,,0834.0,5.01,0.00,22.6,21.9,00.0,31.6,24.3,09.0,0000.0,0014.55,0004.20,0003.07
2021-11-18 14:49:00,,0834.0,4.99,0.00,22.6,21.9,00.0,31.6,24.3,09.0,0000.0,0013.89,0004.25,0003.09
2021-11-18 14:50:00,,0834.0,5.01,0.00,22.6,21.9,00.0,31.6,24.3,09.0,0000.0,0014.11,0004.29,0003.10
2021-11-18 14:51:00,,0834.0,4.99,0.00,22.6,21.9,00.0,31.6,24.3,09.0,0000.0,0013.62,0004.30,0003.13
2021-11-18 14:52:00,,0834.0,5.00,0.00,22.6,21.9,00.0,31.6,24.3,09.0,0000.0,0013.29,0004.27,0003.12
2021-11-18 14:53:00,,0834.0,5.00,0.00,22.6,21.9,00.0,31.6,24.3,09.0,0000.0,0013.29,0004.23,0003.12
2021-11-18 14:54:00,,0834.0,5.00,0.00,22.6,21.8,00.0,31.6,24.4,09.0,0000.0,0012.96,0004.22,0003.13
2021-11-18 14:55:00,,0834.0,5.00,0.00,22.6,21.8,00.0,31.6,24.3,09.0,0000.0,0012.65,0004.23,0003.13
2021-11-18 14:56:00,,0834.0,4.99,0.00,22.6,21.8,00.0,31.6,24.3,09.1,0000.0,0012.27,0004.23,0003.15
2021-11-18 14:57:00,,0834.0,5.00,0.00,22.6,21.8,00.0,31.6,24.3,09.0,0000.0,0011.89,0004.19,0003.18
2021-11-18 14:58:00,,0834.0,5.01,0.00,22.6,21.8,00.0,31.6,24.3,09.0,0000.0,0011.87,0004.22,0003.20
2021-11-18 14:59:00,,0834.0,4.99,0.00,22.6,22.1,00.0,31.6,24.4,09.2,0000.0,0011.91,0004.24,0003.22
